Regional Weather Roundup
Issued by NWS Jackson, KY

Home | Current Version | Previous Version | Graphics & Text | Print | Product List | Glossary On
Versions: 1 2 3 4 5 6 7 8 9 10 11 12 13 14 15 16 17 18 19 20 21 22 23 24 25 26 27 28 29 30 31 32 33 34 35 36 37 38 39 40 41 42 43 44 45 46 47 48 49 50
000
ASUS43 KJKL 251910
RWRJKL

EAST KENTUCKY HOURLY WEATHER ROUNDUP
NATIONAL WEATHER SERVICE JACKSON KY
300 PM EDT FRI JUL 25 2014

NOTE: "FAIR" INDICATES FEW OR NO CLOUDS BELOW 12,000 FEET WITH
NO SIGNIFICANT WEATHER AND/OR OBSTRUCTIONS TO VISIBILITY.

* THESE REPORTS ARE NOT UNDER NWS QUALITY CONTROL AND MAY NOT
  REPORT WEATHER SUCH AS PRECIPITATION AND FOG.

KYZ079-080-083-085-087-088-110-112-115-119-120-252000
...EASTERN KENTUCKY...

CITY           SKY/WX    TMP DP  RH WIND       PRES   REMARKS
JACKSON        CLOUDY    73  57  57 CALM      30.08F
LONDON         CLOUDY    75  58  55 CALM      30.08F
SOMERSET*      MOSUNNY   73  59  60 CALM      30.09S
MONTICELLO*    MOSUNNY   78  63  60 N5        30.09S
WILLIAMSBURG*  MOSUNNY   73  63  68 NW6       30.08F
MIDDLESBORO*   MOSUNNY   79  65  62 N6        30.06S
HARLAN APT*    MOCLDY    77  59  53 MISG      30.07F
BLACK MTN*       N/A     72  59  64 S1          N/A
PIKEVILLE APT* CLOUDY    72  57  60 NE5       30.09F
BIG SANDY*     MOCLDY    77  60  56 CALM      30.08F
MOREHEAD APT*  CLOUDY    75  57  53 VRB5      30.09F
$$

KYZ035-036-041-042-044-050-067-078-099-252000
...CENTRAL KENTUCKY...

CITY           SKY/WX    TMP DP  RH WIND       PRES   REMARKS
MT STERLING*   PTSUNNY   75  55  50 N3        30.08S
FLEMING/MASON* PTSUNNY   77  55  47 S3        30.07F
DANVILLE*      MOSUNNY   77  59  53 NE6       30.08S
RICHMOND*      PTSUNNY   77  55  47 NE5       30.07S
LEXINGTON      SUNNY     80  55  42 CALM      30.06F
FRANKFORT      MOSUNNY   81  54  39 VRB3      30.05S
$$

KYZ091>093-OHZ055-061-077-WVZ005-015-034-035-042-252000
...SOUTHERN OHIO/WEST VIRGINIA...

CITY           SKY/WX    TMP DP  RH WIND       PRES   REMARKS
COVINGTON      PTSUNNY   77  54  44 VRB5      30.05F
COLUMBUS       PTSUNNY   77  52  41 CALM      30.04F
DAYTON         PTSUNNY   73  52  47 CALM      30.07F
WILMINGTON     PTSUNNY   74  55  51 S7        30.06F
HUNTINGTON     PTSUNNY   76  56  49 W3        30.06F
CHARLESTON     PTSUNNY   79  60  52 NW6       30.05F
PINEVILLE*     MOSUNNY   77  63  62 MISG      30.13F
BECKLEY        SUNNY     74  55  51 SW7       30.10F
BLUEFIELD      MOSUNNY   75  59  57 NW7       30.12S
$$

VAZ002-007-008-TNZ017-027-036-066-071-252000
...SOUTHWEST VIRGINIA/EAST TENNESSEE...

CITY           SKY/WX    TMP DP  RH WIND       PRES   REMARKS
WISE*          PTSUNNY   73  59  60 NE3       30.12F
JONESVILLE*    PTCLDY    79  59  50 CALM      30.07F
ABINGDON*      MOSUNNY   80  60  51 W6        30.08F
BRISTOL        PTSUNNY   82  62  50 N6        30.05F
KNOXVILLE      MOSUNNY   81  63  54 SW6       30.02F
OAK RIDGE      SUNNY     83  55  38 SW5       30.04F
CROSSVILLE     MOSUNNY   76  52  43 W7        30.09R
NASHVILLE      MOSUNNY   86  55  34 N5        30.04S
$$

...KEY TO REMARKS...
VSB - VISIBILITY IN MILES
WCI - WIND CHILL INDEX
HX  - HEAT INDEX

$$



USA.gov is the U.S. government's official web portal to all federal, state and local government web resources and services.